Location: Isle of Man Observatory
(54.1776°N, 4.6264°W)
Time: 12:37:35
(UTC+02:00)

Envisat - Visible Passes

Search period start: 22 July 2017 00:00
Search period end: 01 August 2017 00:00
Orbit: 764 x 766 km, 98.2° (Epoch: 21 July)

Date Brightness Start Highest point End Pass type
(mag) Time Alt. Az. Time Alt. Az. Time Alt. Az.
24 Jul 5.6 23:38:04 10° SW 23:41:14 16° W 23:44:25 10° NW visible
27 Jul 5.5 23:26:20 10° SW 23:29:59 20° W 23:33:41 10° NW visible
29 Jul 5.7 23:53:54 10° WSW 23:56:01 12° W 23:58:08 10° WNW visible
30 Jul 5.2 23:14:43 10° SW 23:18:46 24° W 23:22:51 10° NW visible
